Regional Weather Roundup
Issued by NWS

Home | Current Version | Previous Version | Text Only | Print | Product List | Glossary On
Versions: 1 2 3 4 5 6 7 8 9 10 11 12 13 14 15 16 17 18 19 20 21 22 23 24 25 26 27 28 29 30 31 32 33 34 35 36 37 38 39 40 41 42 43 44 45 46 47 48 49 50
000
ASUS43 KTOP 240908
RWRKS

WEATHER ROUNDUP FOR KANSAS
NATIONAL WEATHER SERVICE GOODLAND KS
300 AM CST TUE JAN 24 2017

NOTE:  "FAIR" INDICATES FEW OR NO CLOUDS BELOW 12,000 FEET WITH NO
SIGNIFICANT WEATHER AND/OR OBSTRUCTIONS TO VISIBILITY.

KSZ001>006-013>018-027>032-041>047-241000-
NORTHWEST KANSAS

CITY           SKY/WX    TMP DP  RH WIND       PRES   REMARKS
GOODLAND       CLOUDY    29  27  92 N8        29.44F
HAYS           CLOUDY    35  30  82 E8        29.51F
HILL CITY      CLOUDY    34  32  92 E13       29.50F WCI  25
RUSSELL        CLEAR     35  31  85 E10       29.51F WCI  27
$$

KSZ061>065-074>080-084>089-241000-
SOUTHWEST KANSAS

CITY           SKY/WX    TMP DP  RH WIND       PRES   REMARKS
DODGE CITY     CLEAR     37  32  82 S10       29.49R WCI  30
ELKHART          N/A     43  25  49 SW9         N/A
GARDEN CITY    CLEAR     40  29  64 SW3       29.46F
GREAT BEND     CLEAR     33  30  88 SE8       29.52S
LIBERAL          N/A     39  25  56 SW7       29.48F
PRATT          PTCLDY    34  29  83 SE7       29.53S
$$

KSZ066>073-081>083-090>101-241000-
SOUTHEAST KANSAS

CITY           SKY/WX    TMP DP  RH WIND       PRES   REMARKS
CHANUTE        CLEAR     38  32  79 E10       29.70F WCI  31
COFFEYVILLE    CLEAR     42  33  70 E10       29.69F
HUTCHINSON     CLOUDY    39  32  76 SE13      29.56F WCI  31
MEDICINE LODGE   N/A     37  30  75 E8        29.53F
NEWTON         CLOUDY    37  32  82 SE15      29.59  WCI  28
PARSONS        CLEAR     43  33  68 SE8       29.70F
WICHITA INTL   CLOUDY    41  31  67 SE12      29.58F
WICHITA JABRA  CLOUDY    40  32  73 SE12      29.59F WCI  33
WICHITA MCCONL CLOUDY    41  31  67 SE12      29.58F
WINFIELD       PTCLDY    44  32  62 SE10      29.61S
$$

KSZ007>012-019>026-033>040-048>060-102>105-241000-
NORTHEAST KANSAS

CITY           SKY/WX    TMP DP  RH WIND       PRES   REMARKS
CONCORDIA      PTCLDY    34  33  96 E14       29.62F WCI  25
EMPORIA        CLOUDY    35  32  88 E15       29.66F WCI  25
LAWRENCE       CLEAR     30  30 100 E9        29.77F FOG
MANHATTAN      CLOUDY    34  31  88 E8        29.68F
MARYSVILLE     CLEAR     32  32 100 E12       29.70S FOG     WCI  23
OLATHE IND     CLEAR     32  30  92 E10       29.77F WCI  24
OLATHE EXE     CLEAR     32  30  92 E10       29.77F WCI  24
SALINA           N/A    N/A N/A N/A MISG        N/A
TOPEKA BILLARD CLEAR     33  30  88 E10       29.74F WCI  25
TOPEKA FORBES  CLEAR     34  31  88 E13       29.72F WCI  25
$$



USA.gov is the U.S. government's official web portal to all federal, state and local government web resources and services.